Location: Newark
(37.9800°N, 91.3000°W)
Time: 12:17:14
(UTC+00:00)

Envisat - Pass Details

Date: 22 October 2019
Orbit: 764 x 766 km, 98.1° (Epoch: 14 November)

Event Time Altitude Azimuth Distance (km) Brightness Sun altitude
Rises 11:42:20 0° 34° (NE) 3,236 6.6 -8.2°
Reaches altitude 10° 11:45:45 10° 58° (ENE) 2,304 6.3 -7.5°
Maximum altitude 11:48:29 15° 91° (E) 2,001 6.7 -7.0°
Drops below altitude 10° 11:51:13 10° 124° (SE) 2,295 6.7 -6.5°
Sets 11:54:36 0° 148° (SSE) 3,215 6.9 -5.8°
